Tracking 17886 objects as of 9-December-2016
HD Live streaming from Space Station
objects crossing your sky now

UNAMSAT

Track UNAMSAT now!
10-day predictions
UNAMSAT is classified as:


NORAD ID: 24305
Int'l Code: 1996-052B
Perigee: 971.4 km
Apogee: 1,015.0 km
Inclination: 82.9 °
Period: 104.8 minutes
Semi major axis: 7364 km
RCS: 0.174 m2 (medium)
Launch date: September 5, 1996
Source: Mexico (MEX)
Launch site: PLESETSK MISSILE AND SPACE COMPLEX (PKMTR)
Your satellite tracking list
Your tracking list is empty





NASA's NSSDC Master Catalog

Two Line Element Set (TLE):
1 24305U 96052B   16343.20062569  .00000050  00000-0  37143-4 0  9990
2 24305  82.9352 133.8750 0029569 212.3700 147.5642 13.73777207 15614
Source of the keplerian elements: AFSPC